Location: Fours
(44.3167°N, 6.7000°E)
Time: 00:33:09
(UTC+00:00)

SL-8 R/B - Pass Details

Date: 16 October 2021
Orbit: 656 x 667 km, 48.4° (Epoch: 02 December)

Event Time Altitude Azimuth Distance (km) Brightness Sun altitude
Rises 18:46:49 0° 231° (SW) 2,975 7.7 -22.1°
Reaches altitude 10° 18:49:10 10° 228° (SW) 2,068 6.7 -22.5°
Enters shadow 18:53:41 59° 160° (SSE) 766 3.8 -23.3°
